Showing default

UWE-2, 35934

Orbit data source: Space-Track

UWE-2, 35934 is a payload satellite owned by U Wurzburg (DE) in SSO that was launched on Wed, 23 Sep 2009 UTC via a PSLV launch vehicle from the Sirharikota (SRI). Payload-class satellites include a variety of spacecraft equipped with specific instruments for various scientific and technological missions. These include communications satellites like Starlink; space stations such as the ISS; scientific satellites like the Hubble; Earth observation satellites from companies like Planet Labs, Umbra, and HawkEye 360; GPS; miniature CubeSats for education and research; and military/defense satellites.

Loading next visibility...
Identifier
35934, 2009-051D
Orbit
SSO
Country
Flag of DEDE / GER
Related business
Manufacturer
U Wurzburg
Mission
Non-operational Amateur Technology
Bus & Motor
CUBESAT 1U, Unknown motor
Mass
1 kg wet, 1 kg dry
Launch date (UTC)
2009-09-23 (16 years ago)
Launch vehicle
PSLV
Launch site
Sirharikota (SRI)
Object type
Payload
Rocket body
Debris
Shape & HBR
Box, 0.1 m
Radar Cross Section
0.015 m², Small (<0.1 m²)

Expand to show TLE details & history
Last TLE update: 22 hours ago

TLE from 22 hours ago
0 UWE-2
1 35934U 09051D   25348.69350675  .00001091  00000-0  23829-3 0  9990
2 35934  98.4171 244.5540 0007258  93.8008 266.4022 14.59830836861936
Epoch: 2025-12-14T16:38Z
TLE epoch observation values (Epoch: 2025-12-14T16:38:38.983Z)
Latitude
0.00006°
Longitude
-88.7112°
Altitude
697.024 km
Speed
7.507 km/s
True Right ascension
16h 18m 12s
True Declination
0° 00' 00"
Sunlit
Object was in daylight at epoch
Visualization orbit readout
Latitude
Unknown
Longitude
Unknown
Altitude
Unknown
Speed
Unknown
Apparent Right ascension
Unknown
Apparent Declination
Unknown
Sunlit
N/A
Visualization observer readout
Local Sidereal Time
13:22:46
Azimuth
Unknown
Elevation
Unknown
Doppler factor
Unknown
Orbital elements
Apogee altitude
695.942 km
Perigee altitude
685.681 km
Semi-major axis
7,068.949 km
Eccentricity
0.00073
Inclination
98.4171°
RAAN
244.554°
Arg. of periapsis
93.8008°
True anomaly
266.3192°
Mean anomaly
266.4022°
Eccentric anomaly
266.3607°
Mean motion
3.65183 °/min
Orbital period
98.58 mins
BSTAR
0.00023829
Loading maneuver chart data...
Computing Atmospheric mass density...
Loading historical data...
Loading historical data...
Loading historical data...
Loading historical data...
Loading historical data...
Loading historical data...
Loading historical data...
Other satellites on launch #51 in the year 2009 (2009-09-23 UTC)

Documentation

Showing up to 5 results
|